Time,TemperatureF,DewpointF,PressureIn,WindDirection,WindDirectionDegrees,WindSpeedMPH,WindSpeedGustMPH,Humidity,HourlyPrecipIn,Conditions,Clouds,dailyrainin,SoftwareType,DateUTC
2013-02-13 00:02:00,26.0,25.0,-100.00,WSW,250,4.0,-999.0,93,0.00,,,-99.99,,2013-02-13 06:02:00,
2013-02-13 00:11:00,27.0,26.0,-100.00,WSW,255,4.0,4.0,93,0.00,,,-99.99,,2013-02-13 06:11:00,
2013-02-13 00:21:00,27.0,26.0,-100.00,West,260,4.0,4.0,93,0.00,,,-99.99,,2013-02-13 06:21:00,
2013-02-13 00:32:00,27.0,26.0,-100.00,West,265,6.0,7.0,93,0.00,,,-99.99,,2013-02-13 06:32:00,
2013-02-13 00:42:00,27.0,25.0,-100.00,West,270,6.0,7.0,93,0.00,,,-99.99,,2013-02-13 06:42:00,
2013-02-13 00:51:00,27.0,26.0,-100.00,West,275,6.0,7.0,93,0.00,,,-99.99,,2013-02-13 06:51:00,
2013-02-13 01:02:00,28.0,26.0,-100.00,West,275,6.0,7.0,93,0.00,,,-99.99,,2013-02-13 07:02:00,
2013-02-13 01:11:00,27.0,26.0,-100.00,West,280,6.0,7.0,93,0.00,,,-99.99,,2013-02-13 07:11:00,
2013-02-13 01:21:00,27.0,26.0,-100.00,WNW,285,6.0,7.0,93,0.00,,,-99.99,,2013-02-13 07:21:00,
2013-02-13 01:31:00,27.0,26.0,-100.00,West,280,4.0,7.0,93,0.00,,,-99.99,,2013-02-13 07:31:00,
2013-02-13 01:42:00,26.0,24.0,-100.00,West,275,4.0,7.0,93,0.00,,,-99.99,,2013-02-13 07:42:00,
2013-02-13 01:51:00,26.0,25.0,-100.00,WNW,285,4.0,6.0,93,0.00,,,-99.99,,2013-02-13 07:51:00,
2013-02-13 02:01:00,26.0,24.0,-100.00,WNW,300,2.0,6.0,93,0.00,,,-99.99,,2013-02-13 08:01:00,
2013-02-13 02:11:00,25.0,23.0,-100.00,West,260,3.0,4.0,93,0.00,,,-99.99,,2013-02-13 08:11:00,
2013-02-13 02:21:00,26.0,24.0,-100.00,West,265,6.0,6.0,93,0.00,,,-99.99,,2013-02-13 08:21:00,
2013-02-13 02:32:00,25.0,23.0,-100.00,West,275,6.0,6.0,93,0.00,,,-99.99,,2013-02-13 08:32:00,
2013-02-13 02:43:00,24.0,23.0,-100.00,West,270,4.0,6.0,93,0.00,,,-99.99,,2013-02-13 08:43:00,
2013-02-13 02:52:00,24.0,23.0,-100.00,WSW,255,4.0,6.0,94,0.00,,,-99.99,,2013-02-13 08:52:00,
2013-02-13 03:01:00,24.0,23.0,-100.00,WSW,255,4.0,6.0,94,0.00,,,-99.99,,2013-02-13 09:01:00,
2013-02-13 03:11:00,25.0,23.0,-100.00,West,270,5.0,6.0,94,0.00,,,-99.99,,2013-02-13 09:11:00,
2013-02-13 03:21:00,24.0,23.0,-100.00,West,280,4.0,7.0,94,0.00,,,-99.99,,2013-02-13 09:21:00,
2013-02-13 03:31:00,24.0,23.0,-100.00,West,265,5.0,5.0,94,0.00,,,-99.99,,2013-02-13 09:31:00,
2013-02-13 03:42:00,23.0,22.0,-100.00,WNW,290,2.0,6.0,94,0.00,,,-99.99,,2013-02-13 09:42:00,
2013-02-13 03:51:00,23.0,21.0,-100.00,West,280,2.0,4.0,94,0.00,,,-99.99,,2013-02-13 09:51:00,
2013-02-13 04:01:00,22.0,21.0,-100.00,West,275,1.0,2.0,94,0.00,,,-99.99,,2013-02-13 10:01:00,
2013-02-13 04:11:00,22.0,21.0,-100.00,West,280,4.0,6.0,94,0.00,,,-99.99,,2013-02-13 10:11:00,
2013-02-13 04:21:00,24.0,23.0,-100.00,West,275,6.0,7.0,94,0.00,,,-99.99,,2013-02-13 10:21:00,
2013-02-13 04:32:00,24.0,23.0,-100.00,West,270,5.0,7.0,94,0.00,,,-99.99,,2013-02-13 10:32:00,
2013-02-13 04:42:00,24.0,23.0,-100.00,West,280,4.0,6.0,94,0.00,,,-99.99,,2013-02-13 10:42:00,
2013-02-13 04:51:00,24.0,23.0,-100.00,WNW,290,5.0,6.0,94,0.00,,,-99.99,,2013-02-13 10:51:00,
2013-02-13 05:01:00,24.0,22.0,-100.00,WNW,285,4.0,6.0,94,0.00,,,-99.99,,2013-02-13 11:01:00,
2013-02-13 05:11:00,24.0,22.0,-100.00,WNW,290,5.0,6.0,94,0.00,,,-99.99,,2013-02-13 11:11:00,
2013-02-13 05:22:00,24.0,22.0,-100.00,West,280,4.0,6.0,94,0.00,,,-99.99,,2013-02-13 11:22:00,
2013-02-13 05:32:00,24.0,22.0,-100.00,WNW,295,6.0,6.0,94,0.00,,,-99.99,,2013-02-13 11:32:00,
2013-02-13 05:42:00,23.0,22.0,-100.00,WNW,300,4.0,6.0,94,0.00,,,-99.99,,2013-02-13 11:42:00,
2013-02-13 05:52:00,22.0,21.0,-100.00,NW,310,2.0,4.0,94,0.00,,,-99.99,,2013-02-13 11:52:00,
2013-02-13 06:02:00,22.0,21.0,-100.00,WNW,300,4.0,4.0,94,0.00,,,-99.99,,2013-02-13 12:02:00,
2013-02-13 06:11:00,22.0,21.0,-100.00,NW,305,5.0,6.0,94,0.00,,,-99.99,,2013-02-13 12:11:00,
2013-02-13 06:21:00,22.0,20.0,-100.00,WNW,295,5.0,6.0,94,0.00,,,-99.99,,2013-02-13 12:21:00,
2013-02-13 06:32:00,22.0,21.0,-100.00,WNW,285,6.0,7.0,94,0.00,,,-99.99,,2013-02-13 12:32:00,
2013-02-13 06:42:00,22.0,21.0,-100.00,WNW,295,6.0,7.0,94,0.00,,,-99.99,,2013-02-13 12:42:00,
2013-02-13 06:52:00,22.0,21.0,-100.00,WNW,300,3.0,6.0,94,0.00,,,-99.99,,2013-02-13 12:52:00,
2013-02-13 07:02:00,21.0,20.0,-100.00,NW,305,6.0,6.0,94,0.00,,,-99.99,,2013-02-13 13:02:00,
2013-02-13 07:11:00,21.0,20.0,-100.00,WNW,295,6.0,7.0,94,0.00,,,-99.99,,2013-02-13 13:11:00,
2013-02-13 07:21:00,22.0,21.0,-100.00,WNW,290,6.0,7.0,94,0.00,,,-99.99,,2013-02-13 13:21:00,
2013-02-13 07:32:00,22.0,20.0,-100.00,NW,305,6.0,7.0,94,0.00,,,-99.99,,2013-02-13 13:32:00,
2013-02-13 07:42:00,22.0,21.0,-100.00,WNW,290,4.0,7.0,94,0.00,,,-99.99,,2013-02-13 13:42:00,
2013-02-13 07:51:00,23.0,21.0,-100.00,WNW,295,5.0,7.0,94,0.00,,,-99.99,,2013-02-13 13:51:00,
2013-02-13 08:01:00,25.0,23.0,-100.00,NW,310,6.0,7.0,94,0.00,,,-99.99,,2013-02-13 14:01:00,
2013-02-13 08:11:00,25.0,24.0,-100.00,WNW,295,6.0,8.0,94,0.00,,,-99.99,,2013-02-13 14:11:00,
2013-02-13 08:21:00,26.0,25.0,-100.00,NW,310,5.0,6.0,94,0.00,,,-99.99,,2013-02-13 14:21:00,
2013-02-13 08:31:00,27.0,25.0,-100.00,NW,310,7.0,9.0,93,0.00,,,-99.99,,2013-02-13 14:31:00,
2013-02-13 08:42:00,27.0,25.0,-100.00,WNW,295,6.0,9.0,92,0.00,,,-99.99,,2013-02-13 14:42:00,
2013-02-13 08:52:00,28.0,26.0,-100.00,NW,305,4.0,6.0,91,0.00,,,-99.99,,2013-02-13 14:52:00,
2013-02-13 09:01:00,28.0,25.0,-100.00,WNW,295,6.0,7.0,89,0.00,,,-99.99,,2013-02-13 15:01:00,
2013-02-13 09:11:00,28.0,25.0,-100.00,WNW,295,6.0,8.0,87,0.00,,,-99.99,,2013-02-13 15:11:00,
2013-02-13 09:21:00,29.0,25.0,-100.00,NW,305,7.0,9.0,85,0.00,,,-99.99,,2013-02-13 15:21:00,
2013-02-13 09:32:00,30.0,25.0,-100.00,WNW,300,7.0,9.0,81,0.00,,,-99.99,,2013-02-13 15:32:00,
2013-02-13 09:42:00,31.0,26.0,-100.00,WNW,295,6.0,8.0,79,0.00,,,-99.99,,2013-02-13 15:42:00,
2013-02-13 09:51:00,32.0,25.0,-100.00,NW,305,6.0,9.0,75,0.00,,,-99.99,,2013-02-13 15:51:00,
2013-02-13 10:01:00,33.0,25.0,-100.00,West,280,6.0,7.0,73,0.00,,,-99.99,,2013-02-13 16:01:00,
2013-02-13 10:11:00,34.0,26.0,-100.00,West,265,6.0,6.0,70,0.00,,,-99.99,,2013-02-13 16:11:00,
2013-02-13 10:21:00,33.0,25.0,-100.00,West,260,7.0,8.0,70,0.00,,,-99.99,,2013-02-13 16:21:00,
2013-02-13 10:31:00,33.0,25.0,-100.00,West,265,9.0,10.0,70,0.00,,,-99.99,,2013-02-13 16:31:00,
2013-02-13 10:42:00,35.0,26.0,-100.00,West,260,7.0,9.0,69,0.00,,,-99.99,,2013-02-13 16:42:00,
2013-02-13 10:51:00,34.0,25.0,-100.00,West,280,7.0,9.0,69,0.00,,,-99.99,,2013-02-13 16:51:00,
2013-02-13 11:01:00,34.0,25.0,-100.00,West,260,9.0,11.0,69,0.00,,,-99.99,,2013-02-13 17:01:00,
2013-02-13 11:11:00,35.0,26.0,-100.00,WSW,250,7.0,9.0,69,0.00,,,-99.99,,2013-02-13 17:11:00,
2013-02-13 11:21:00,35.0,26.0,-100.00,SW,235,7.0,10.0,69,0.00,,,-99.99,,2013-02-13 17:21:00,
2013-02-13 11:31:00,36.0,26.0,-100.00,WSW,240,7.0,9.0,68,0.00,,,-99.99,,2013-02-13 17:31:00,
2013-02-13 11:42:00,36.0,26.0,-100.00,WSW,250,7.0,9.0,68,0.00,,,-99.99,,2013-02-13 17:42:00,
2013-02-13 11:52:00,35.0,26.0,-100.00,WSW,240,7.0,11.0,69,0.00,,,-99.99,,2013-02-13 17:52:00,
2013-02-13 12:01:00,37.0,28.0,-100.00,West,260,7.0,10.0,67,0.00,,,-99.99,,2013-02-13 18:01:00,
2013-02-13 12:11:00,35.0,26.0,-100.00,SW,230,7.0,9.0,69,0.00,,,-99.99,,2013-02-13 18:11:00,
2013-02-13 12:22:00,35.0,26.0,-100.00,SW,215,9.0,11.0,71,0.00,,,-99.99,,2013-02-13 18:22:00,
2013-02-13 12:32:00,35.0,27.0,-100.00,SW,230,9.0,11.0,72,0.00,,,-99.99,,2013-02-13 18:32:00,
2013-02-13 12:42:00,36.0,28.0,-100.00,WSW,250,7.0,10.0,72,0.00,,,-99.99,,2013-02-13 18:42:00,
2013-02-13 12:52:00,36.0,28.0,-100.00,West,260,9.0,11.0,71,0.00,,,-99.99,,2013-02-13 18:52:00,
2013-02-13 13:01:00,36.0,28.0,-100.00,WSW,250,9.0,11.0,71,0.00,,,-99.99,,2013-02-13 19:01:00,
2013-02-13 13:11:00,36.0,28.0,-100.00,WSW,250,9.0,11.0,71,0.00,,,-99.99,,2013-02-13 19:11:00,
2013-02-13 13:21:00,36.0,28.0,-100.00,WSW,245,10.0,13.0,72,0.00,,,-99.99,,2013-02-13 19:21:00,
2013-02-13 13:31:00,36.0,28.0,-100.00,West,260,10.0,11.0,72,0.00,,,-99.99,,2013-02-13 19:31:00,
2013-02-13 13:42:00,36.0,29.0,-100.00,WSW,250,9.0,12.0,73,0.00,,,-99.99,,2013-02-13 19:42:00,
2013-02-13 13:51:00,36.0,29.0,-100.00,WSW,240,9.0,12.0,75,0.00,,,-99.99,,2013-02-13 19:51:00,
2013-02-13 14:02:00,37.0,30.0,-100.00,West,265,6.0,11.0,76,0.00,,,-99.99,,2013-02-13 20:02:00,
2013-02-13 14:11:00,37.0,30.0,-100.00,West,260,10.0,12.0,76,0.00,,,-99.99,,2013-02-13 20:11:00,
2013-02-13 14:21:00,36.0,30.0,-100.00,WSW,255,10.0,13.0,77,0.00,,,-99.99,,2013-02-13 20:21:00,
2013-02-13 14:31:00,37.0,30.0,-100.00,WSW,255,8.0,12.0,77,0.00,,,-99.99,,2013-02-13 20:31:00,
2013-02-13 14:42:00,36.0,30.0,-100.00,WSW,240,9.0,12.0,77,0.00,,,-99.99,,2013-02-13 20:42:00,
2013-02-13 14:52:00,36.0,30.0,-100.00,WSW,240,8.0,10.0,77,0.00,,,-99.99,,2013-02-13 20:52:00,
2013-02-13 15:01:00,36.0,30.0,-100.00,SW,225,7.0,10.0,77,0.00,,,-99.99,,2013-02-13 21:01:00,
2013-02-13 15:11:00,36.0,30.0,-100.00,SW,225,7.0,10.0,77,0.00,,,-99.99,,2013-02-13 21:11:00,
2013-02-13 15:21:00,37.0,31.0,-100.00,SW,230,8.0,11.0,77,0.00,,,-99.99,,2013-02-13 21:21:00,
2013-02-13 15:31:00,38.0,31.0,-100.00,SW,230,9.0,11.0,77,0.00,,,-99.99,,2013-02-13 21:31:00,
2013-02-13 15:42:00,38.0,31.0,-100.00,SW,225,11.0,12.0,76,0.00,,,-99.99,,2013-02-13 21:42:00,
2013-02-13 15:52:00,39.0,31.0,-100.00,SW,230,10.0,13.0,74,0.00,,,-99.99,,2013-02-13 21:52:00,
2013-02-13 16:02:00,40.0,32.0,-100.00,SW,230,8.0,11.0,73,0.00,,,-99.99,,2013-02-13 22:02:00,
2013-02-13 16:11:00,39.0,32.0,-100.00,SW,215,9.0,12.0,74,0.00,,,-99.99,,2013-02-13 22:11:00,
2013-02-13 16:21:00,39.0,31.0,-100.00,SSW,210,9.0,12.0,74,0.00,,,-99.99,,2013-02-13 22:21:00,
2013-02-13 16:31:00,39.0,31.0,-100.00,SSW,210,9.0,12.0,74,0.00,,,-99.99,,2013-02-13 22:31:00,
2013-02-13 16:42:00,39.0,32.0,-100.00,SSW,210,7.0,10.0,75,0.00,,,-99.99,,2013-02-13 22:42:00,
2013-02-13 16:51:00,39.0,32.0,-100.00,SW,215,8.0,11.0,75,0.00,,,-99.99,,2013-02-13 22:51:00,
2013-02-13 17:01:00,39.0,31.0,-100.00,SSW,200,6.0,12.0,75,0.00,,,-99.99,,2013-02-13 23:01:00,
2013-02-13 17:11:00,38.0,31.0,-100.00,South,190,6.0,7.0,77,0.00,,,-99.99,,2013-02-13 23:11:00,
2013-02-13 17:21:00,37.0,31.0,-100.00,SSW,200,4.0,6.0,78,0.00,,,-99.99,,2013-02-13 23:21:00,
2013-02-13 17:32:00,36.0,31.0,-100.00,South,190,4.0,6.0,79,0.00,,,-99.99,,2013-02-13 23:32:00,
2013-02-13 17:42:00,36.0,31.0,-100.00,South,180,4.0,5.0,80,0.00,,,-99.99,,2013-02-13 23:42:00,
2013-02-13 17:52:00,35.0,31.0,-100.00,South,175,4.0,6.0,82,0.00,,,-99.99,,2013-02-13 23:52:00,
2013-02-13 18:02:00,35.0,31.0,-100.00,South,175,4.0,6.0,83,0.00,,,-99.99,,2013-02-14 00:02:00,
2013-02-13 18:11:00,35.0,31.0,-100.00,South,180,4.0,6.0,84,0.00,,,-99.99,,2013-02-14 00:11:00,
2013-02-13 18:21:00,35.0,31.0,-100.00,South,175,4.0,6.0,85,0.00,,,-99.99,,2013-02-14 00:21:00,
2013-02-13 18:32:00,35.0,31.0,-100.00,South,175,4.0,6.0,85,0.00,,,-99.99,,2013-02-14 00:32:00,
2013-02-13 18:42:00,35.0,31.0,-100.00,South,175,4.0,6.0,85,0.00,,,-99.99,,2013-02-14 00:42:00,
2013-02-13 18:51:00,35.0,31.0,-100.00,South,180,4.0,6.0,85,0.00,,,-99.99,,2013-02-14 00:51:00,
2013-02-13 19:01:00,36.0,32.0,-100.00,South,175,6.0,7.0,86,0.00,,,-99.99,,2013-02-14 01:01:00,
2013-02-13 19:11:00,36.0,32.0,-100.00,South,175,6.0,8.0,86,0.00,,,-99.99,,2013-02-14 01:11:00,
2013-02-13 19:21:00,36.0,32.0,-100.00,South,175,6.0,9.0,86,0.00,,,-99.99,,2013-02-14 01:21:00,
2013-02-13 19:31:00,36.0,32.0,-100.00,South,175,6.0,9.0,85,0.00,,,-99.99,,2013-02-14 01:31:00,
2013-02-13 19:41:00,36.0,32.0,-100.00,South,180,7.0,9.0,85,0.00,,,-99.99,,2013-02-14 01:41:00,
2013-02-13 19:51:00,36.0,32.0,-100.00,South,175,7.0,11.0,85,0.00,,,-99.99,,2013-02-14 01:51:00,
2013-02-13 20:01:00,36.0,32.0,-100.00,South,180,7.0,11.0,85,0.00,,,-99.99,,2013-02-14 02:01:00,
2013-02-13 20:11:00,36.0,32.0,-100.00,South,190,6.0,11.0,85,0.00,,,-99.99,,2013-02-14 02:11:00,
2013-02-13 20:21:00,36.0,32.0,-100.00,South,175,6.0,9.0,85,0.00,,,-99.99,,2013-02-14 02:21:00,
2013-02-13 20:31:00,36.0,32.0,-100.00,South,185,8.0,11.0,85,0.00,,,-99.99,,2013-02-14 02:31:00,
2013-02-13 20:41:00,36.0,32.0,-100.00,South,185,8.0,11.0,85,0.00,,,-99.99,,2013-02-14 02:41:00,
2013-02-13 20:51:00,36.0,32.0,-100.00,South,185,8.0,11.0,85,0.00,,,-99.99,,2013-02-14 02:51:00,
2013-02-13 21:02:00,36.0,33.0,-100.00,South,185,7.0,16.0,85,0.00,,,-99.99,,2013-02-14 03:02:00,
2013-02-13 21:11:00,37.0,33.0,-100.00,SSW,195,7.0,11.0,85,0.06,,,-99.99,,2013-02-14 03:11:00,
2013-02-13 21:21:00,36.0,33.0,-100.00,SSW,205,7.0,11.0,85,0.01,,,-99.99,,2013-02-14 03:21:00,
2013-02-13 21:31:00,38.0,33.0,-100.00,SSW,205,10.0,14.0,82,0.01,,,-99.99,,2013-02-14 03:31:00,
2013-02-13 21:42:00,38.0,33.0,-100.00,SSW,210,9.0,13.0,81,0.00,,,-99.99,,2013-02-14 03:42:00,
2013-02-13 21:51:00,37.0,32.0,-100.00,SSW,200,6.0,12.0,81,0.00,,,-99.99,,2013-02-14 03:51:00,
2013-02-13 22:01:00,37.0,32.0,-100.00,SSW,200,6.0,12.0,81,0.00,,,-99.99,,2013-02-14 04:01:00,
2013-02-13 22:12:00,36.0,32.0,-100.00,South,185,7.0,9.0,84,0.00,,,-99.99,,2013-02-14 04:12:00,
2013-02-13 22:21:00,36.0,32.0,-100.00,South,185,7.0,9.0,85,0.00,,,-99.99,,2013-02-14 04:21:00,
2013-02-13 22:31:00,36.0,32.0,-100.00,South,185,7.0,9.0,85,0.00,,,-99.99,,2013-02-14 04:31:00,
2013-02-13 22:41:00,36.0,33.0,-100.00,SSW,200,7.0,9.0,86,0.00,,,-99.99,,2013-02-14 04:41:00,
2013-02-13 22:51:00,37.0,33.0,-100.00,SSW,205,8.0,12.0,85,0.00,,,-99.99,,2013-02-14 04:51:00,
2013-02-13 23:02:00,37.0,33.0,-100.00,SW,220,9.0,14.0,84,0.00,,,-99.99,,2013-02-14 05:02:00,
2013-02-13 23:11:00,37.0,33.0,-100.00,SW,225,9.0,12.0,84,0.00,,,-99.99,,2013-02-14 05:11:00,
2013-02-13 23:21:00,37.0,33.0,-100.00,SW,225,9.0,11.0,84,0.00,,,-99.99,,2013-02-14 05:21:00,
2013-02-13 23:31:00,37.0,33.0,-100.00,SW,225,9.0,11.0,84,0.00,,,-99.99,,2013-02-14 05:31:00,
2013-02-13 23:42:00,37.0,33.0,-100.00,SW,225,9.0,11.0,84,0.00,,,-99.99,,2013-02-14 05:42:00,
2013-02-13 23:52:00,37.0,33.0,-100.00,SW,225,9.0,11.0,84,0.00,,,-99.99,,2013-02-14 05:52:00,